GW2742 Weather Reports


time (UTC)temp
C
wind
direction
speed
KPH
gust
KPH
rain 1hr
cm
rain 24hr
cm
rain mn
cm
humidity
%
barometer
mb
20260506162522 7 198 8.0 17.7 0.00 0.00 0.00 43 1018.2
20260506162022 8 57 4.8 14.5 0.00 0.00 0.00 43 1018.2
20260506161548 7 181 3.2 14.5 0.00 0.00 0.00 44 1018.3
20260506161022 7 148 1.6 11.3 0.00 0.00 0.00 45 1018.4
20260506160529 7 98 4.8 11.3 0.00 0.00 0.00 44 1018.5
20260506160040 7 127 4.8 14.5 0.00 0.00 0.00 47 1018.6
20260506155522 6 91 6.4 14.5 0.00 0.00 0.00 49 1018.7
20260506155022 6 65 4.8 11.3 0.00 0.00 0.00 49 1018.7
20260506154538 6 79 1.6 9.7 0.00 0.00 0.00 50 1018.8
20260506154025 6 0 3.2 9.7 0.00 0.00 0.00 51 1018.9
20260506153523 6 199 3.2 11.3 0.00 0.00 0.00 52 1018.9
20260506153045 6 167 4.8 11.3 0.00 0.00 0.00 53 1019.0
20260506152522 6 75 3.2 6.4 0.00 0.00 0.00 52 1019.1
20260506152025 5 67 1.6 8.0 0.00 0.00 0.00 53 1019.2
20260506151537 5 0 1.6 8.0 0.00 0.00 0.00 53 1019.3
20260506151022 5 92 1.6 8.0 0.00 0.00 0.00 57 1019.3
20260506150522 4 136 1.6 8.0 0.00 0.00 0.00 56 1019.2
20260506150037 4 193 1.6 8.0 0.00 0.00 0.00 55 1019.3
20260506145522 4 141 1.6 6.4 0.00 0.00 0.00 59 1019.2
20260506145025 3 231 1.6 4.8 0.00 0.00 0.00 60 1019.3
20260506144540 3 158 0.0 6.4 0.00 0.00 0.00 60 1019.3
20260506144022 3 158 1.6 6.4 0.00 0.00 0.00 61 1019.5
20260506143525 3 171 1.6 4.8 0.00 0.00 0.00 64 1019.6
20260506143037 2 0 1.6 4.8 0.00 0.00 0.00 61 1019.5
20260506142522 2 220 1.6 4.8 0.00 0.00 0.00 62 1019.6
20260506142022 2 0 0.0 3.2 0.00 0.00 0.00 64 1019.7
20260506141538 2 0 0.0 3.2 0.00 0.00 0.00 67 1019.7
20260506141023 1 0 0.0 3.2 0.00 0.00 0.00 68 1019.8
20260506140523 1 0 0.0 3.2 0.00 0.00 0.00 71 1019.8
20260506140043 0 0 0.0 3.2 0.00 0.00 0.00 70 1019.7
20260506135530 0 0 0.0 4.8 0.00 0.00 0.00 72 1019.7
20260506135027 0 213 0.0 4.8 0.00 0.00 0.00 72 1019.7
20260506134606 0 213 1.6 4.8 0.00 0.00 0.00 73 1019.8
20260506134022 -1 213 1.6 4.8 0.00 0.00 0.00 73 1019.8
20260506133521 -1 213 1.6 4.8 0.00 0.00 0.00 73 1019.7
20260506133038 -1 0 0.0 3.2 0.00 0.00 0.00 75 1019.7
20260506132523 -1 0 0.0 4.8 0.00 0.00 0.00 76 1019.8
20260506132023 -2 188 1.6 4.8 0.00 0.00 0.00 76 1019.7
20260506131546 -2 188 1.6 4.8 0.00 0.00 0.00 77 1019.7
20260506131027 -2 188 1.6 4.8 0.00 0.00 0.00 79 1019.6
20260506130532 -2 188 1.6 4.8 0.00 0.00 0.00 81 1019.6
20260506130037 -3 0 0.0 0.0 0.00 0.00 0.00 85 1019.5
20260506125528 -3 0 0.0 0.0 0.00 0.00 0.00 85 1019.4
20260506125026 -4 0 0.0 0.0 0.00 0.00 0.00 84 1019.4
20260506124536 -5 0 0.0 0.0 0.00 0.00 0.00 84 1019.4
20260506124026 -5 0 0.0 0.0 0.00 0.00 0.00 83 1019.1
20260506123526 -5 0 0.0 0.0 0.00 0.00 0.00 83 1019.3
20260506123043 -5 0 0.0 3.2 0.00 0.00 0.00 84 1019.2
20260506122527 -5 0 0.0 3.2 0.00 0.00 0.00 83 1019.2
20260506122026 -5 188 0.0 1.6 0.00 0.00 0.00 83 1019.2
20260506121539 -5 0 0.0 0.0 0.00 0.00 0.00 82 1019.2
20260506121026 -5 0 0.0 1.6 0.00 0.00 0.00 82 1019.1
20260506120530 -5 0 0.0 3.2 0.00 0.00 0.00 82 1019.1
20260506120037 -4 0 0.0 3.2 0.00 0.00 0.00 82 1019.1
20260506115526 -4 188 0.0 3.2 0.00 0.00 0.00 81 1019.1
20260506115026 -4 0 0.0 0.0 0.00 0.00 0.00 80 1019.0
20260506114544 -4 0 0.0 0.0 0.00 0.00 0.00 80 1019.1
20260506114026 -4 0 0.0 1.6 0.00 0.00 0.00 80 1019.1
20260506113526 -4 0 0.0 3.2 0.00 0.00 0.00 80 1019.1
20260506113039 -4 0 0.0 3.2 0.00 0.00 0.00 81 1019.0
20260506112527 -4 188 0.0 3.2 0.00 0.00 0.00 81 1019.0
20260506112026 -4 0 0.0 0.0 0.00 0.00 0.00 81 1019.0
20260506111537 -4 0 0.0 0.0 0.00 0.00 0.00 81 1018.9
20260506111027 -4 0 0.0 0.0 0.00 0.00 0.00 81 1018.8
20260506110526 -3 0 0.0 1.6 0.00 0.00 0.00 80 1018.9
20260506110039 -3 0 0.0 1.6 0.00 0.00 0.00 81 1018.8
20260506105526 -3 0 0.0 3.2 0.00 0.00 0.00 82 1018.9
20260506105025 -3 0 0.0 3.2 0.00 0.00 0.00 82 1018.8
20260506104541 -4 0 0.0 0.0 0.00 0.00 0.00 81 1018.9
20260506104025 -4 0 0.0 0.0 0.00 0.00 0.00 81 1018.8
20260506103526 -3 0 0.0 0.0 0.00 0.00 0.00 80 1018.8
20260506103037 -3 0 0.0 0.0 0.00 0.00 0.00 80 1018.9
20260506102526 -3 0 0.0 1.6 0.00 0.00 0.00 80 1018.9
20260506102027 -3 0 0.0 3.2 0.00 0.00 0.00 80 1018.8
20260506101536 -3 187 0.0 3.2 0.00 0.00 0.00 80 1018.7
20260506101026 -3 187 0.0 3.2 0.00 0.00 0.00 79 1018.8
20260506100526 -3 0 0.0 3.2 0.00 0.00 0.00 79 1018.7
20260506100037 -3 187 1.6 3.2 0.00 0.00 0.00 79 1018.7
20260506095526 -3 0 0.0 3.2 0.00 0.00 0.00 79 1018.7
20260506095027 -3 187 0.0 3.2 0.00 0.00 0.00 79 1018.7
20260506094541 -3 0 0.0 4.8 0.00 0.00 0.00 79 1018.7
20260506094030 -3 187 1.6 4.8 0.00 0.00 0.00 78 1018.8
20260506093527 -2 187 3.2 4.8 0.00 0.00 0.00 79 1018.9
20260506093036 -2 187 1.6 4.8 0.00 0.00 0.00 79 1018.8
20260506092528 -2 187 1.6 4.8 0.00 0.00 0.00 79 1018.9
20260506092028 -2 0 1.6 4.8 0.00 0.00 0.00 79 1018.9
20260506091537 -2 187 1.6 6.4 0.00 0.00 0.00 79 1018.9
20260506091027 -2 187 3.2 6.4 0.00 0.00 0.00 79 1018.8
20260506090526 -2 187 1.6 4.8 0.00 0.00 0.00 79 1018.8
20260506090036 -2 187 0.0 1.6 0.00 0.00 0.00 79 1018.7
20260506085527 -2 0 0.0 1.6 0.00 0.00 0.00 78 1018.7
20260506085027 -2 0 0.0 1.6 0.00 0.00 0.00 78 1018.8
20260506084536 -2 0 0.0 1.6 0.00 0.00 0.00 78 1018.8
20260506084027 -2 187 0.0 3.2 0.00 0.00 0.00 78 1018.8
20260506083527 -2 187 0.0 3.2 0.00 0.00 0.00 78 1018.7
20260506083042 -1 187 1.6 4.8 0.00 0.00 0.00 78 1018.7
20260506082527 -1 187 1.6 4.8 0.00 0.00 0.00 78 1018.7
20260506082028 -1 187 3.2 4.8 0.00 0.00 0.00 77 1018.7
20260506081546 -1 187 1.6 3.2 0.00 0.00 0.00 78 1018.7
20260506081028 -1 187 0.0 3.2 0.00 0.00 0.00 77 1018.7
20260506080529 -1 0 1.6 3.2 0.00 0.00 0.00 76 1018.7
20260506073526 -1 187 0.0 4.8 0.00 0.00 0.00 76 1018.9
20260506073037 -1 187 1.6 4.8 0.00 0.00 0.00 76 1018.8
20260506072526 -1 187 1.6 4.8 0.00 0.00 0.00 75 1018.8
20260506072029 -1 187 0.0 4.8 0.00 0.00 0.00 75 1018.9
20260506071535 -1 188 1.6 4.8 0.00 0.00 0.00 75 1018.9
20260506071027 -1 187 0.0 4.8 0.00 0.00 0.00 74 1018.9
20260506070525 -1 0 0.0 0.0 0.00 0.00 0.00 73 1019.0
20260506062027 0 0 0.0 0.0 0.00 0.00 0.00 72 1018.9
20260506061541 0 0 0.0 0.0 0.00 0.00 0.00 71 1019.1
20260506061024 0 0 0.0 0.0 0.00 0.00 0.00 71 1018.9
20260506060528 0 0 0.0 0.0 0.00 0.00 0.00 71 1018.8
20260506051027 2 0 0.0 0.0 0.00 0.00 0.00 54 1018.5
20260506050528 2 0 0.0 0.0 0.00 0.00 0.00 53 1018.5
20260506045027 2 0 0.0 4.8 0.00 0.00 0.00 52 1018.5
20260506044539 2 0 0.0 8.0 0.00 0.00 0.00 51 1018.5
20260506044029 3 27 1.6 8.0 0.00 0.00 0.00 50 1018.7
20260506043526 3 24 1.6 8.0 0.00 0.00 0.00 50 1018.5
20260506043036 3 349 1.6 4.8 0.00 0.00 0.00 51 1018.5
20260506042526 3 0 1.6 8.0 0.00 0.00 0.00 51 1018.5
20260506042026 3 17 1.6 8.0 0.00 0.00 0.00 49 1018.5
20260506041539 3 7 3.2 9.7 0.00 0.00 0.00 49 1018.4
20260506041027 3 12 3.2 9.7 0.00 0.00 0.00 49 1018.4
20260506040526 3 47 3.2 6.4 0.00 0.00 0.00 50 1018.3
20260506040038 3 41 3.2 11.3 0.00 0.00 0.00 51 1018.2
20260506035551 3 25 3.2 11.3 0.00 0.00 0.00 51 1018.3
20260506035026 3 39 3.2 8.0 0.00 0.00 0.00 51 1018.2
20260506034537 3 37 3.2 9.7 0.00 0.00 0.00 50 1018.4
20260506034027 3 30 3.2 9.7 0.00 0.00 0.00 50 1018.2
20260506033528 3 23 4.8 9.7 0.00 0.00 0.00 49 1018.2
20260506033039 3 23 4.8 12.9 0.00 0.00 0.00 50 1018.1
20260506032524 3 39 4.8 12.9 0.00 0.00 0.00 48 1018.0
20260506032024 3 27 6.4 12.9 0.00 0.00 0.00 48 1018.1
20260506031539 3 359 4.8 11.3 0.00 0.00 0.00 48 1017.9
20260506031028 3 359 4.8 11.3 0.00 0.00 0.00 48 1017.9
20260506030526 3 23 6.4 11.3 0.00 0.00 0.00 48 1017.8
20260506030037 3 30 6.4 11.3 0.00 0.00 0.00 48 1017.7
20260506025529 3 30 4.8 16.1 0.00 0.00 0.00 48 1017.7
20260506025026 3 359 6.4 16.1 0.00 0.00 0.00 47 1017.5
20260506024545 3 50 3.2 8.0 0.00 0.00 0.00 48 1017.5
20260506024026 3 6 3.2 8.0 0.00 0.00 0.00 47 1017.3
20260506023526 4 15 3.2 14.5 0.00 0.00 0.00 47 1017.1
20260506023041 4 49 1.6 14.5 0.00 0.00 0.00 47 1017.1
20260506022530 4 23 4.8 14.5 0.00 0.00 0.00 46 1017.0
20260506022027 4 359 4.8 14.5 0.00 0.00 0.00 46 1016.8
20260506021538 5 1 6.4 17.7 0.00 0.00 0.00 45 1016.7
20260506021025 5 11 8.0 17.7 0.00 0.00 0.00 45 1016.7
20260506020526 5 13 8.0 19.3 0.00 0.00 0.00 45 1016.6
20260506020040 5 15 8.0 22.5 0.00 0.00 0.00 45 1016.4
20260506015526 5 11 8.0 22.5 0.00 0.00 0.00 44 1016.4
20260506015029 5 354 9.7 22.5 0.00 0.00 0.00 44 1016.3
20260506014537 5 1 8.0 24.1 0.00 0.00 0.00 44 1016.3
20260506014026 5 360 8.0 24.1 0.00 0.00 0.00 45 1016.2
20260506013526 5 349 8.0 24.1 0.00 0.00 0.00 44 1016.1
20260506013038 6 77 8.0 25.7 0.00 0.00 0.00 46 1016.1
20260506012524 6 37 8.0 25.7 0.00 0.00 0.00 46 1016.0
20260506012026 6 49 11.3 22.5 0.00 0.00 0.00 45 1016.0
20260506011602 6 41 9.7 22.5 0.00 0.00 0.00 45 1016.0
20260506011026 6 25 11.3 25.7 0.00 0.00 0.00 45 1015.8
20260506010526 6 22 12.9 25.7 0.00 0.00 0.00 46 1015.7
20260506010037 6 44 11.3 22.5 0.00 0.00 0.00 46 1015.7
20260506005525 6 13 12.9 22.5 0.00 0.00 0.00 46 1015.6
20260506005025 6 13 9.7 22.5 0.00 0.00 0.00 45 1015.5
20260506004552 6 33 12.9 24.1 0.00 0.00 0.00 46 1015.5
20260506004026 6 27 11.3 25.7 0.00 0.00 0.00 48 1015.5
20260506003524 6 63 17.7 25.7 0.00 0.00 0.00 47 1015.5
20260506003036 6 1 12.9 22.5 0.00 0.00 0.00 48 1015.5
20260506002524 6 6 14.5 24.1 0.00 0.00 0.00 49 1015.5
20260506002024 6 32 12.9 24.1 0.00 0.00 0.00 49 1015.4
20260506001544 6 30 14.5 24.1 0.00 0.00 0.00 49 1015.5
20260506001027 6 50 16.1 24.1 0.00 0.00 0.00 49 1015.5
20260506000527 6 56 12.9 27.4 0.00 0.00 0.00 50 1015.3
20260506000108 6 66 14.5 27.4 0.00 0.00 0.00 50 1015.4
20260505235527 6 22 12.9 22.5 0.00 0.00 0.00 50 1015.4
20260505235027 6 45 12.9 20.9 0.00 0.00 0.00 52 1015.2
20260505234544 6 51 9.7 20.9 0.00 0.00 0.00 53 1015.1
20260505234027 6 53 8.0 30.6 0.00 0.00 0.00 53 1015.2
20260505233528 6 5 14.5 30.6 0.00 0.00 0.00 52 1015.3
20260505233037 6 53 19.3 30.6 0.00 0.00 0.00 51 1015.0
20260505232526 6 44 16.1 29.0 0.00 0.00 0.00 51 1015.1
20260505232024 6 41 12.9 32.2 0.00 0.00 0.00 49 1015.0
20260505231537 6 27 19.3 32.2 0.00 0.00 0.00 51 1014.7
20260505231024 6 20 16.1 30.6 0.00 0.00 0.00 53 1014.7
20260505230524 6 8 17.7 29.0 0.00 0.00 0.00 52 1014.6
20260505230058 6 75 16.1 30.6 0.00 0.00 0.00 52 1014.8
20260505225528 6 27 12.9 33.8 0.00 0.00 0.00 52 1014.9
20260505225024 6 354 19.3 33.8 0.00 0.00 0.00 51 1014.8
20260505224541 6 29 19.3 33.8 0.00 0.00 0.00 52 1014.8
20260505224023 6 20 19.3 33.8 0.00 0.00 0.00 52 1014.8
20260505223525 6 41 20.9 33.8 0.00 0.00 0.00 52 1014.6
20260505223039 6 39 14.5 33.8 0.00 0.00 0.00 49 1014.6
20260505222526 7 34 19.3 33.8 0.00 0.00 0.00 45 1014.5
20260505222025 8 53 12.9 32.2 0.00 0.00 0.00 42 1014.4
20260505221536 8 21 14.5 33.8 0.00 0.00 0.00 43 1014.3
20260505221024 7 49 9.7 33.8 0.00 0.00 0.00 45 1014.4
20260505220523 7 43 16.1 38.6 0.00 0.00 0.00 47 1014.2
20260505220039 7 30 12.9 38.6 0.00 0.00 0.00 47 1014.2
20260505215523 7 32 19.3 35.4 0.00 0.00 0.00 47 1014.2
20260505215023 7 53 14.5 37.0 0.00 0.00 0.00 49 1014.2
20260505214542 7 41 22.5 37.0 0.00 0.00 0.00 52 1014.3
20260505214024 7 14 20.9 35.4 0.00 0.00 0.00 49 1014.2
20260505213525 7 14 22.5 35.4 0.00 0.00 0.00 47 1014.3
20260505213039 8 46 16.1 25.7 0.00 0.00 0.00 48 1014.5
20260505212524 8 9 11.3 22.5 0.00 0.00 0.00 34 1014.4
20260505212023 8 322 8.0 25.7 0.00 0.00 0.00 45 1014.5
20260505211540 8 14 12.9 25.7 0.00 0.00 0.00 45 1014.3
20260505211022 8 49 12.9 24.1 0.00 0.00 0.00 43 1014.4
20260505210528 8 32 12.9 22.5 0.00 0.00 0.00 42 1014.4
20260505210042 8 66 6.4 19.3 0.00 0.00 0.00 43 1014.5
20260505205525 9 331 11.3 19.3 0.00 0.00 0.00 45 1014.6
20260505205028 9 359 9.7 17.7 0.00 0.00 0.00 34 1014.6
20260505204545 9 354 8.0 20.9 0.00 0.00 0.00 38 1014.5
20260505204023 8 356 8.0 32.2 0.00 0.00 0.00 43 1014.6
20260505203525 7 5 19.3 32.2 0.00 0.00 0.00 51 1014.9
20260505203052 7 6 14.5 29.0 0.00 0.00 0.00 53 1014.8
20260505202523 7 61 12.9 35.4 0.00 0.00 0.00 57 1014.8
20260505202023 6 28 17.7 35.4 0.00 0.00 0.00 56 1014.9
20260505201541 6 54 20.9 33.8 0.00 0.00 0.00 56 1015.0
20260505201024 7 65 20.9 33.8 0.00 0.00 0.00 55 1015.0
20260505200524 8 43 14.5 32.2 0.00 0.00 0.00 52 1015.0
20260505200038 9 338 14.5 27.4 0.00 0.00 0.00 42 1015.0
20260505195522 8 359 14.5 29.0 0.00 0.00 0.00 45 1014.9
20260505195022 8 321 11.3 32.2 0.00 0.00 0.00 46 1015.1
20260505194550 8 354 16.1 32.2 0.00 0.00 0.00 43 1014.9
20260505194026 8 342 16.1 29.0 0.00 0.00 0.00 46 1014.9
20260505193523 8 360 11.3 25.7 0.00 0.00 0.00 46 1014.9
20260505193038 8 319 9.7 24.1 0.00 0.00 0.00 45 1014.8
20260505192526 8 337 8.0 22.5 0.00 0.00 0.00 47 1015.0
20260505192024 8 341 12.9 27.4 0.00 0.00 0.00 46 1015.1
20260505191553 8 328 14.5 27.4 0.00 0.00 0.00 46 1015.0
20260505191025 8 345 14.5 27.4 0.00 0.00 0.00 44 1015.2
20260505190527 8 324 12.9 27.4 0.00 0.00 0.00 46 1015.1
20260505190041 8 347 12.9 27.4 0.00 0.00 0.00 43 1015.1
20260505185523 8 357 12.9 33.8 0.00 0.00 0.00 42 1015.2
20260505185025 8 342 14.5 33.8 0.00 0.00 0.00 41 1015.2
20260505184538 8 355 14.5 25.7 0.00 0.00 0.00 42 1015.1
20260505184025 8 332 8.0 25.7 0.00 0.00 0.00 43 1015.1
20260505183526 8 288 9.7 22.5 0.00 0.00 0.00 43 1015.2
20260505183043 8 323 12.9 22.5 0.00 0.00 0.00 44 1015.3
20260505182523 8 292 8.0 24.1 0.00 0.00 0.00 44 1015.3
20260505182024 8 332 8.0 24.1 0.00 0.00 0.00 44 1015.4
20260505181538 7 283 11.3 24.1 0.00 0.00 0.00 44 1015.4
20260505181025 8 322 9.7 24.1 0.00 0.00 0.00 44 1015.4
20260505180523 8 356 12.9 30.6 0.00 0.00 0.00 44 1015.4
20260505180047 8 290 9.7 30.6 0.00 0.00 0.00 46 1015.3
20260505175526 7 308 9.7 30.6 0.00 0.00 0.00 44 1015.4
20260505175026 7 330 9.7 22.5 0.00 0.00 0.00 45 1015.6
20260505174540 7 353 8.0 22.5 0.00 0.00 0.00 46 1015.6
20260505174022 7 347 9.7 20.9 0.00 0.00 0.00 45 1015.6
20260505173526 8 334 8.0 22.5 0.00 0.00 0.00 47 1015.7
20260505173036 7 340 9.7 22.5 0.00 0.00 0.00 48 1015.7
20260505172522 7 339 9.7 22.5 0.00 0.00 0.00 51 1015.7
20260505172022 6 306 8.0 27.4 0.00 0.00 0.00 50 1015.7
20260505171538 6 360 14.5 27.4 0.00 0.00 0.00 49 1015.8
20260505171024 6 343 9.7 24.1 0.00 0.00 0.00 48 1015.9
20260505170525 6 343 9.7 24.1 0.00 0.00 0.00 46 1015.7
20260505170037 6 345 11.3 24.1 0.00 0.00 0.00 44 1015.8
20260505165523 7 335 8.0 22.5 0.00 0.00 0.00 44 1015.8
20260505165023 7 357 11.3 22.5 0.00 0.00 0.00 43 1015.9
20260505164536 7 359 9.7 19.3 0.00 0.00 0.00 43 1016.0
20260505164024 7 352 8.0 19.3 0.00 0.00 0.00 44 1016.0
20260505163523 7 356 11.3 19.3 0.00 0.00 0.00 43 1016.0
20260505163037 6 321 8.0 27.4 0.00 0.00 0.00 42 1015.8